Marathon, FL

8:06 AM EST on November 22, 2017 (GMT -0500)
Florida Keys Marathon

Weather History for KMTH - June, 2013

Change the Weather History Date:

Monday, June 3, 2013

  Actual Average Record
Temperature  
Mean Temperature 80 °F 84 °F  
Max Temperature 84 °F 90 °F 92 °F (2006)
Min Temperature 75 °F 79 °F 73 °F (2005)
Degree Days  
Heating Degree Days 0 0  
Month to date heating degree days 0 0  
Since 1 June heating degree days 0 0  
Since 1 July heating degree days 36 81  
Cooling Degree Days 15 19  
Month to date cooling degree days 48 57  
Year to date cooling degree days 1878 1600  
Since 1 June cooling degree days 48 57  
Growing Degree Days 28 (Base 50)    
Moisture  
Dew Point 72 °F    
Average Humidity 81    
Maximum Humidity 88    
Minimum Humidity 74    
Precipitation  
Precipitation 2.84 in 0.14 in 2.84 in (2013)
Month to date precipitation 5.40 0.42  
Year to date precipitation 25.16 12.36  
Snow  
Snow 0.00 in - - ()
Month to date snowfall 0.0  
Since 1 June snowfall 0.0  
Since 1 July snowfall 0.0  
Snow Depth 0.00 in    
Sea Level Pressure  
Sea Level Pressure 29.97 in    
Wind  
Wind Speed 3 mph (East)    
Max Wind Speed 17 mph    
Max Gust Speed 29 mph    
Visibility 6 miles    
Events Rain , Thunderstorm    
T = Trace of Precipitation, MM = Missing Value Source: NWS Daily Summary

Daily Weather History Graph

Daily Weather History Graph

Search for Another Location

Airport or City:

Trip Planner

Search our weather history database for the weather conditions in past years. The results will help you decide how hot, cold, wet, or windy it might be!

Date:

Astronomy

Jun. 03, 2013 Rise Set
Actual Time 6:34 AM EDT 8:10 PM EDT
Civil Twilight 6:09 AM EDT 8:35 PM EDT
Nautical Twilight 5:38 AM EDT 9:06 PM EDT
Astronomical Twilight 5:06 AM EDT 9:38 PM EDT
Moon 3:05 AM EDT (6/3) 4:01 PM EDT (6/3)
Length of Visible Light 14h 26m
Length of Day
13h 35m
Waning Crescent, 22% of the Moon is Illuminated
Jun 3
Waning Crescent
Jun 8
New
Jun 16
First Quarter
Jun 23
Full
Jun 30
Last Quarter

Hourly Weather History & Observations

Time (EDT) Temp. Heat Index Dew Point Humidity Pressure Visibility Wind Dir Wind Speed Gust Speed Precip Events Conditions
12:53 AM 81.0 °F 85.8 °F 73.0 °F 77% 29.98 in 10.0 mi SE 4.6 mph - N/A   Overcast
1:53 AM 81.0 °F 86.2 °F 73.9 °F 79% 29.95 in 10.0 mi ESE 4.6 mph - N/A   Mostly Cloudy
2:53 AM 78.1 °F - 70.0 °F 76% 29.93 in 10.0 mi Calm Calm - 0.00 in   Mostly Cloudy
3:53 AM 82.0 °F 87.4 °F 73.0 °F 74% 29.93 in 10.0 mi SSE 4.6 mph - N/A   Mostly Cloudy
4:42 AM 78.8 °F - 71.6 °F 78% 29.92 in 10.0 mi Calm Calm - N/A   Mostly Cloudy
4:53 AM 79.0 °F - 71.1 °F 77% 29.92 in 10.0 mi Calm Calm - N/A   Overcast
5:05 AM 78.8 °F - 71.6 °F 78% 29.93 in 8.0 mi Variable 3.5 mph - 0.01 in Rain Light Rain
5:10 AM 78.8 °F - 71.6 °F 78% 29.93 in 1.8 mi ENE 6.9 mph - 0.21 in Rain Heavy Rain
5:20 AM 77.0 °F - 71.6 °F 83% 29.93 in 1.8 mi NNW 9.2 mph - 0.36 in Rain , Thunderstorm Heavy Rain
5:40 AM 75.2 °F - 69.8 °F 83% 29.94 in 0.5 mi Variable 5.8 mph 28.8 mph 1.05 in Rain , Thunderstorm Heavy Thunderstorms and Rain
5:48 AM 75.2 °F - 71.6 °F 89% 29.94 in 0.8 mi NNW 5.8 mph - 1.18 in Rain , Thunderstorm Heavy Thunderstorms and Rain
5:53 AM 75.0 °F - 70.0 °F 84% 29.95 in 2.5 mi NNE 5.8 mph - 1.18 in Rain , Thunderstorm Light Thunderstorms and Rain
5:57 AM 75.2 °F - 69.8 °F 83% 29.95 in 6.0 mi NNE 3.5 mph - 0.01 in Rain , Thunderstorm Light Rain
6:05 AM 75.2 °F - 71.6 °F 89% 29.96 in 5.0 mi Calm Calm - 0.03 in Rain , Thunderstorm Rain
6:09 AM 75.2 °F - 69.8 °F 83% 29.96 in 2.5 mi WSW 4.6 mph - 0.07 in Rain Heavy Rain
6:14 AM 75.2 °F - 69.8 °F 83% 29.96 in 1.0 mi Variable 3.5 mph - 0.18 in Rain Heavy Rain
6:33 AM 75.2 °F - 69.8 °F 83% 29.96 in 3.0 mi ENE 5.8 mph - 0.36 in Rain Heavy Rain
6:53 AM 75.9 °F - 71.1 °F 85% 29.97 in 8.0 mi Calm Calm - 0.39 in Rain Light Rain
7:27 AM 75.2 °F - 71.6 °F 89% 29.99 in 1.8 mi Calm Calm - 0.12 in Rain Heavy Rain
7:51 AM 75.2 °F - 71.6 °F 89% 29.98 in 2.5 mi Calm Calm - 0.28 in Rain Heavy Rain
7:53 AM 75.9 °F - 72.0 °F 87% 29.98 in 2.0 mi Calm Calm - 0.30 in Rain Heavy Rain
8:09 AM 75.2 °F - 71.6 °F 89% 29.99 in 5.0 mi Calm Calm - 0.05 in Rain Rain
8:53 AM 75.9 °F - 71.1 °F 85% 29.99 in 8.0 mi Calm Calm - 0.12 in Rain Light Rain
9:53 AM 77.0 °F - 73.0 °F 88% 29.99 in 7.0 mi Calm Calm - 0.05 in Rain Light Rain
10:30 AM 78.8 °F - 71.6 °F 78% 29.99 in 8.0 mi ESE 3.5 mph - 0.01 in Rain Light Rain
10:41 AM 78.8 °F - 71.6 °F 78% 29.99 in 9.0 mi Calm Calm - 0.02 in Rain Light Rain
10:53 AM 78.1 °F - 73.0 °F 84% 30.00 in 10.0 mi SE 3.5 mph - 0.02 in Rain Light Rain
11:42 AM 78.8 °F - 73.4 °F 83% 30.00 in 10.0 mi Calm Calm - 0.01 in Rain Light Rain
11:53 AM 79.0 °F - 73.0 °F 82% 30.00 in 10.0 mi Calm Calm - 0.01 in Rain Light Rain
12:10 PM 78.8 °F - 73.4 °F 83% 29.99 in 10.0 mi Calm Calm - 0.01 in Rain Light Rain
12:53 PM 80.1 °F 84.2 °F 73.0 °F 79% 29.98 in 10.0 mi Variable 3.5 mph - 0.01 in   Scattered Clouds
1:53 PM 82.0 °F 87.4 °F 73.0 °F 74% 29.96 in 10.0 mi East 5.8 mph - N/A   Clear
2:53 PM 82.9 °F 88.8 °F 73.0 °F 72% 29.94 in 10.0 mi East 5.8 mph - N/A   Clear
3:53 PM 82.9 °F 90.2 °F 75.0 °F 77% 29.95 in 10.0 mi Variable 3.5 mph - 0.00 in Rain Light Rain
4:53 PM 78.1 °F - 71.1 °F 79% 29.94 in 0.8 mi ESE 12.7 mph 23.0 mph 0.20 in Rain Rain
4:59 PM 75.2 °F - 69.8 °F 83% 29.94 in 0.2 mi East 10.4 mph 23.0 mph 0.35 in Rain Heavy Rain
5:01 PM 75.2 °F - 71.6 °F 89% 29.94 in 0.2 mi ENE 9.2 mph 23.0 mph 0.36 in Rain Heavy Rain
5:08 PM 77.0 °F - 71.6 °F 83% 29.94 in 2.5 mi ENE 5.8 mph - 0.36 in Rain Light Rain
5:10 PM 77.0 °F - 71.6 °F 83% 29.94 in 7.0 mi ENE 5.8 mph - 0.36 in Rain Light Rain
5:14 PM 78.8 °F - 71.6 °F 78% 29.94 in 10.0 mi NE 4.6 mph - 0.36 in   Mostly Cloudy
5:53 PM 80.1 °F 84.2 °F 73.0 °F 79% 29.94 in 10.0 mi East 3.5 mph - 0.36 in   Partly Cloudy
6:53 PM 81.0 °F 86.2 °F 73.9 °F 79% 29.95 in 10.0 mi East 4.6 mph - N/A   Partly Cloudy
7:53 PM 80.1 °F 84.2 °F 73.0 °F 79% 29.96 in 10.0 mi East 5.8 mph - N/A   Clear
8:53 PM 81.0 °F 85.2 °F 72.0 °F 74% 29.97 in 10.0 mi SE 5.8 mph - N/A   Scattered Clouds
9:53 PM 81.0 °F 85.8 °F 73.0 °F 77% 29.99 in 10.0 mi ESE 4.6 mph - N/A   Partly Cloudy
10:25 PM 78.8 °F - 73.4 °F 83% 30.02 in 2.5 mi South 11.5 mph 21.9 mph 0.06 in Rain Heavy Rain
10:33 PM 77.0 °F - 71.6 °F 83% 30.02 in 3.0 mi South 13.8 mph 23.0 mph 0.07 in Rain Light Rain
10:42 PM 77.0 °F - 71.6 °F 83% 30.03 in 2.5 mi SSW 8.1 mph 23.0 mph 0.12 in Rain Heavy Rain
10:53 PM 75.9 °F - 72.0 °F 87% 30.03 in 5.0 mi WSW 5.8 mph - 0.14 in Rain Light Rain
10:59 PM 75.2 °F - 71.6 °F 89% 30.03 in 5.0 mi Variable 3.5 mph - 0.01 in Rain Rain
11:12 PM 75.2 °F - 71.6 °F 89% 30.03 in 5.0 mi WSW 3.5 mph - 0.03 in Rain Rain
11:53 PM 75.0 °F - 71.1 °F 87% 30.02 in 10.0 mi Calm Calm - 0.06 in Rain Light Rain